When you browse on this site, cookies collect data to enhance your experience and personalize the content and advertising you see.
Visit our Privacy Policy to learn more. By continuing to use the site, you agree to this use of cookies and data.
  • In Portugal
  • List of Countries
  • For 7 days
  • Water Temperature
  • Satellite Maps
  • Weather Map
  • Weather Widgets
  • user-avatar
    Login

    Hourly Weather Jewłach

    Today, 16 December, Sunday

    Time Temperature Precipitation Wind Pressure Humidity
    00:00 +8°C° 0 mm 1 mps 768 mmHg 51%
    01:00 +8°C° 0 mm 1 mps 768 mmHg 52%
    02:00 +8°C° 0 mm 1 mps 768 mmHg 52%
    03:00 +7°C° 0 mm 2 mps 767 mmHg 54%
    04:00 +7°C° 0 mm 2 mps 767 mmHg 54%
    05:00 +6°C° 0 mm 2 mps 767 mmHg 54%
    06:00 +6°C° 0 mm 2 mps 767 mmHg 54%
    07:00 +7°C° 0 mm 2 mps 767 mmHg 52%
    08:00 +8°C° 0 mm 2 mps 767 mmHg 50%
    09:00 +9°C° 0 mm 2 mps 767 mmHg 47%
    10:00 +10°C° 0 mm 2 mps 767 mmHg 45%
    11:00 +12°C° 0 mm 2 mps 767 mmHg 43%
    12:00 +13°C° 0 mm 1 mps 767 mmHg 40%
    13:00 +13°C° 0 mm 2 mps 767 mmHg 41%
    14:00 +13°C° 0 mm 2 mps 767 mmHg 41%
    15:00 +13°C° 0 mm 2 mps 767 mmHg 42%
    16:00 +12°C° 0 mm 2 mps 767 mmHg 46%
    17:00 +10°C° 0 mm 2 mps 768 mmHg 50%
    18:00 +9°C° 0 mm 2 mps 768 mmHg 54%
    19:00 +9°C° 0 mm 3 mps 768 mmHg 58%
    20:00 +8°C° 0 mm 3 mps 768 mmHg 63%
    21:00 +7°C° 0 mm 4 mps 769 mmHg 68%
    22:00 +7°C° 0 mm 3 mps 769 mmHg 72%
    23:00 +7°C° 0 mm 3 mps 769 mmHg 76%

    Tomorrow, 17 December, Monday

    Time Temperature Precipitation Wind Pressure Humidity
    00:00 +5°C° 0 mm 3 mps 769 mmHg 81%
    01:00 +6°C° 0 mm 2 mps 769 mmHg 81%
    02:00 +6°C° 0 mm 2 mps 769 mmHg 82%
    03:00 +6°C° 0 mm 2 mps 769 mmHg 83%
    04:00 +6°C° 0 mm 2 mps 769 mmHg 83%
    05:00 +7°C° 0 mm 1 mps 769 mmHg 84%
    06:00 +7°C° 0 mm 1 mps 769 mmHg 85%
    07:00 +7°C° 0 mm 1 mps 769 mmHg 84%
    08:00 +7°C° 0 mm 1 mps 768 mmHg 82%
    09:00 +8°C° 0 mm 1 mps 768 mmHg 80%
    10:00 +7°C° 0 mm 2 mps 768 mmHg 78%
    11:00 +8°C° 0 mm 2 mps 767 mmHg 76%
    12:00 +8°C° 0 mm 2 mps 767 mmHg 73%
    13:00 +8°C° 0 mm 2 mps 767 mmHg 74%
    14:00 +8°C° 0 mm 2 mps 767 mmHg 74%
    15:00 +8°C° 0 mm 2 mps 767 mmHg 74%
    16:00 +8°C° 0 mm 2 mps 767 mmHg 77%
    17:00 +7°C° 0 mm 2 mps 767 mmHg 80%
    18:00 +7°C° 0 mm 2 mps 767 mmHg 83%
    19:00 +7°C° 0.1 mm 2 mps 767 mmHg 84%
    20:00 +7°C° 0.1 mm 2 mps 767 mmHg 84%
    21:00 +7°C° 0.1 mm 2 mps 767 mmHg 85%
    22:00 +7°C° 0.4 mm 2 mps 767 mmHg 86%
    23:00 +6°C° 0.4 mm 2 mps 767 mmHg 87%

    Day after tomorrow, 18 December, Tuesday

    Time Temperature Precipitation Wind Pressure Humidity
    00:00 +7°C° 0.4 mm 1 mps 767 mmHg 88%
    01:00 +7°C° 0.4 mm 1 mps 767 mmHg 88%
    02:00 +7°C° 0.4 mm 1 mps 767 mmHg 88%
    03:00 +7°C° 0.4 mm 1 mps 766 mmHg 89%
    04:00 +7°C° 0.6 mm 1 mps 766 mmHg 89%
    05:00 +6°C° 0.6 mm 0 mps 766 mmHg 89%
    06:00 +6°C° 0.6 mm 0 mps 766 mmHg 90%
    07:00 +7°C° 0.6 mm 1 mps 766 mmHg 89%
    08:00 +7°C° 0.6 mm 1 mps 767 mmHg 88%
    09:00 +7°C° 0.6 mm 1 mps 767 mmHg 88%
    10:00 +8°C° 0.4 mm 1 mps 767 mmHg 87%
    11:00 +8°C° 0.4 mm 1 mps 767 mmHg 86%
    12:00 +8°C° 0.4 mm 1 mps 767 mmHg 85%
    13:00 +8°C° 0.1 mm 1 mps 767 mmHg 85%
    14:00 +8°C° 0.1 mm 1 mps 767 mmHg 84%
    15:00 +8°C° 0.1 mm 1 mps 767 mmHg 83%
    16:00 +8°C° 0 mm 1 mps 767 mmHg 86%
    17:00 +8°C° 0 mm 1 mps 768 mmHg 88%
    18:00 +7°C° 0 mm 1 mps 768 mmHg 90%
    19:00 +7°C° 0 mm 1 mps 768 mmHg 91%
    20:00 +7°C° 0 mm 1 mps 768 mmHg 92%
    21:00 +7°C° 0 mm 1 mps 769 mmHg 93%
    22:00 +7°C° 0 mm 1 mps 769 mmHg 93%
    23:00 +7°C° 0 mm 1 mps 769 mmHg 93%

    19 December, Wednesday

    Time Temperature Precipitation Wind Pressure Humidity
    00:00 +6°C° 0 mm 1 mps 769 mmHg 93%
    01:00 +6°C° 0 mm 1 mps 769 mmHg 93%
    02:00 +5°C° 0 mm 0 mps 769 mmHg 93%
    03:00 +5°C° 0 mm 0 mps 769 mmHg 92%
    04:00 +5°C° 0 mm 0 mps 769 mmHg 92%
    05:00 +5°C° 0 mm 0 mps 769 mmHg 92%
    06:00 +5°C° 0 mm 0 mps 769 mmHg 92%
    07:00 +5°C° 0 mm 0 mps 769 mmHg 90%
    08:00 +6°C° 0 mm 0 mps 769 mmHg 87%
    09:00 +6°C° 0 mm 0 mps 769 mmHg 85%
    10:00 +8°C° 0 mm 1 mps 768 mmHg 82%
    11:00 +8°C° 0 mm 1 mps 768 mmHg 79%
    12:00 +9°C° 0 mm 1 mps 767 mmHg 76%
    13:00 +9°C° 0 mm 1 mps 767 mmHg 75%
    14:00 +9°C° 0 mm 1 mps 767 mmHg 75%
    15:00 +9°C° 0 mm 1 mps 767 mmHg 74%
    16:00 +9°C° 0 mm 1 mps 767 mmHg 78%
    17:00 +8°C° 0 mm 1 mps 767 mmHg 82%
    18:00 +7°C° 0 mm 1 mps 767 mmHg 86%
    19:00 +7°C° 0 mm 1 mps 767 mmHg 87%
    20:00 +7°C° 0 mm 1 mps 767 mmHg 88%
    21:00 +7°C° 0 mm 1 mps 767 mmHg 90%
    22:00 +7°C° 0 mm 1 mps 767 mmHg 88%
    23:00 +7°C° 0 mm 1 mps 767 mmHg 87%

    20 December, Thursday

    Time Temperature Precipitation Wind Pressure Humidity
    00:00 +7°C° 0 mm 1 mps 767 mmHg 86%
    01:00 +7°C° 0 mm 1 mps 766 mmHg 85%
    02:00 +7°C° 0 mm 1 mps 766 mmHg 85%
    03:00 +7°C° 0 mm 1 mps 766 mmHg 84%
    04:00 +7°C° 0 mm 1 mps 766 mmHg 84%
    05:00 +7°C° 0 mm 1 mps 765 mmHg 85%
    06:00 +6°C° 0 mm 2 mps 765 mmHg 85%
    07:00 +6°C° 0 mm 2 mps 765 mmHg 83%
    08:00 +7°C° 0 mm 2 mps 765 mmHg 80%
    09:00 +7°C° 0 mm 2 mps 765 mmHg 78%
    10:00 +8°C° 0 mm 2 mps 765 mmHg 74%
    11:00 +9°C° 0 mm 2 mps 764 mmHg 69%
    12:00 +10°C° 0 mm 2 mps 764 mmHg 65%
    13:00 +10°C° 0 mm 2 mps 764 mmHg 63%
    14:00 +10°C° 0 mm 2 mps 763 mmHg 61%
    15:00 +10°C° 0 mm 2 mps 763 mmHg 59%
    16:00 +10°C° 0 mm 2 mps 764 mmHg 62%
    17:00 +10°C° 0 mm 1 mps 764 mmHg 66%
    18:00 +9°C° 0 mm 1 mps 764 mmHg 69%
    19:00 +9°C° 0 mm 1 mps 765 mmHg 69%
    20:00 +9°C° 0 mm 1 mps 765 mmHg 70%
    21:00 +9°C° 0 mm 1 mps 765 mmHg 70%
    22:00 +8°C° 0 mm 1 mps 765 mmHg 70%
    23:00 +8°C° 0 mm 1 mps 765 mmHg 70%

    21 December, Friday

    Time Temperature Precipitation Wind Pressure Humidity
    00:00 +8°C° 0 mm 1 mps 765 mmHg 71%
    01:00 +8°C° 0 mm 1 mps 766 mmHg 71%
    02:00 +8°C° 0 mm 1 mps 766 mmHg 71%
    03:00 +8°C° 0 mm 1 mps 766 mmHg 71%
    04:00 +8°C° 0 mm 1 mps 766 mmHg 72%
    05:00 +8°C° 0 mm 1 mps 766 mmHg 72%
    06:00 +6°C° 0 mm 0 mps 766 mmHg 72%
    07:00 +7°C° 0 mm 0 mps 766 mmHg 69%
    08:00 +8°C° 0 mm 0 mps 767 mmHg 66%
    09:00 +9°C° 0 mm 0 mps 767 mmHg 63%
    10:00 +10°C° 0 mm 1 mps 767 mmHg 62%
    11:00 +11°C° 0 mm 1 mps 766 mmHg 61%
    12:00 +11°C° 0 mm 1 mps 766 mmHg 59%
    13:00 +11°C° 0 mm 1 mps 766 mmHg 60%
    14:00 +11°C° 0 mm 1 mps 766 mmHg 62%
    15:00 +11°C° 0 mm 1 mps 765 mmHg 63%
    16:00 +10°C° 0 mm 0 mps 766 mmHg 67%
    17:00 +9°C° 0 mm 0 mps 766 mmHg 71%
    18:00 +8°C° 0 mm 0 mps 766 mmHg 76%
    19:00 +8°C° 0 mm 0 mps 766 mmHg 78%
    20:00 +9°C° 0 mm 1 mps 766 mmHg 80%
    21:00 +8°C° 0 mm 1 mps 766 mmHg 82%
    22:00 +8°C° 0.1 mm 1 mps 766 mmHg 83%
    23:00 +8°C° 0.1 mm 1 mps 766 mmHg 85%
    Show more